Weather in Baker Lake

Canada     64°19′01″N   96°01′20″W
temp.,
°C
wind,
m/s
gust,
m/s
humid.,
%
clouds,
%
prec.,
mm/h
press.,
hPa
HPBL,
m
18 april, sun
sun1801:00−19wnw598546 0.0 102580
04:00−18nw6108456 0.0 1024132
07:00−16nw7128218 0.0 1024226
10:00−15nw715827 0.0 1025555
13:00−13nw813807 0.0 1024580
16:00−11nnw7138121 0.0 1024636
19:00−12nnw59845 0.0 1024135
22:00−17nnw44975 0.0 102423
19 april, mon
mon1901:00−20nnw44995 0.0 102536
04:00−21nnw45989 0.0 102635
07:00−21nnw45988 0.0 102752
10:00−16nw48905 0.0 1027236
13:00−11nnw578598 0.0 1026410
16:00−8nw5882100 0.0 1025605
19:00−7wnw4887100 0.1 1023494
22:00−13w339791 0.0 102118
20 april, tue
tue2001:00−16wnw2210077 0.0 101910
04:00−16wnw119893 0.1 101714
07:00−14wsw1196100 0.1 101528
10:00−8wnw2391100 0.0 1013141
13:00−3nw3586100 0.0 1012421
16:00−2nw468481 0.0 1011560
19:00−2nw3486100 0.0 1010535
22:00−4wnw3393100 0.0 101041
21 april, wed
wed2101:00−5w3394100 0.1 100952
04:00−6wsw2294100 0.1 100836
07:00−7sw2296100 0.1 100788
10:00−7ssw239397 0.1 1006216
13:00−4sw2389100 0.1 1005375
16:00−2w2384100 0.1 1004476
19:00−2nw5897100 0.5 1003594
22:00−9nnw91592100 0.9 1005542
22 april, thu
thu2201:00−13nw91385100 1.1 1007474
04:00−20nw69945 0.0 1008100
07:00−23wnw47975 0.0 100874
10:00−18wnw47905 0.0 1008238
13:00−15wnw568484 0.0 1008412
16:00−13wnw5779100 0.0 1008746
19:00−13w349299 0.0 100863
22:00−20wnw2210077 0.0 10079